Weather in Pleshkovo

Russia / Tyumen Oblast     56°04′39″N   69°41′09″E
temp.,
°C
wind,
m/s
gust,
m/s
humid.,
%
clouds,
%
prec.,
mm/h
press.,
hPa
HPBL,
m
29 july, thu
thu2923:00+13wnw4861100 0.0 1008315
02:00+8wnw37835 0.0 1009120
05:00+7w34930 0.0 101082
08:00+13wnw46624 0.0 1010589
11:00+17w5741100 0.0 10102288
14:00+18w6839100 0.0 10092387
17:00+18w684191 0.0 10092236
20:00+14sw375820 0.0 1009112
30 july, fri
fri3023:00+12sw4106555 0.0 1009181
02:00+11ssw4869100 0.0 1008155
05:00+11wsw3572100 0.0 100979
08:00+16wsw3558100 0.0 1010398
11:00+22sw7113990 0.0 10091672
14:00+25wsw91130100 0.0 10073119
17:00+25sw71135100 0.0 10062577
20:00+23sw81340100 0.0 10051017
31 july, sat
sat3123:00+16sw71490100 0.8 1005701
02:00+15wsw71393100 0.1 1005706
05:00+15sw5992100 0.1 1005385
08:00+17wsw358585 0.0 1006364
11:00+20wnw4570100 0.1 1007807
14:00+24wnw355368 0.1 10071675
17:00+20wnw36806 0.4 1009282
20:00+18n33915 0.3 101054
1 august, sun
sun123:00+15ene33953 0.3 101145
02:00+14ese33960 0.0 101159
05:00+14ese349734 0.0 101176
08:00+19se348399 0.0 1011297
11:00+20sse477899 0.1 1009353
14:00+28ssw364372 0.0 10071900
17:00+27ssw355488 0.4 1005818
20:00+19nw119518 1.9 100612
2 august, mon
mon223:00+18wsw3496100 1.9 100566
02:00+17wnw369569 0.0 1005104
05:00+16wnw389311 0.0 1005180
08:00+19nw58760 0.0 1007391
11:00+24nw79460 0.0 10071549
14:00+25nw79380 0.0 10072160
17:00+25nw7103948 0.0 10072595
20:00+20nw365926 0.0 1008156